www.pogodaiklimat.ru

Погода и климат >> Архив погоды >> Пакистан >> Khanpur


ПОГОДА в Khanpur

  • Прогноз погоды в Khanpur
  • Монитор погоды в Khanpur
  • Климат города

АРХИВ ПОГОДЫ в Khanpur

Время (UTC), дата Ветер
(напр.,м/с)
 
Видим.   Явления Облачность Т
(С)
Тd
(С)
f
(%)
Тe
(С)
Тes
(С)
Комфортность P
(гПа)
Po
(гПа)
Тmin
(С)
Tmax
(С)
R
(мм)
R24
(мм)
S
(см)
03 11.10 штиль 0 2000 м дым ясно +18.0 +15.5 85 +18 +21 1010.6 1000.3 +17.5
06 11.10 штиль 0 4000 м дым ясно +29.0 +18.2 52 +34 +50 очень
душно
1009.8 999.8
09 11.10 штиль 0 4000 м мгла ясно +33.0 +16.6 38 +36 +51 опасность
солнечного
удара
1008.7 1000.0
12 11.10 штиль 0 4000 м мгла ясно +33.0 +15.5 35 +35 +37 душно 1007.6 997.7 +34.1
15 11.10 штиль 0 4000 м дым ясно +26.0 +19.1 66 +31 +31 очень
душно
1008.4 1000.0
18 11.10 штиль 0 4000 м дым ясно +22.5 +17.7 74 +28 +28 душно 1010.8 1000.6
21 11.10 штиль 0 4000 м дым ясно +21.0 +16.9 77 +24 +24 комфорт 1009.2 1009.0
00 12.10 штиль 0 2000 м дым ясно +19.0 +17.4 90 +20 +20 1009.3 999.0
03 12.10 штиль 0 2000 м дым ясно +18.5 +15.1 81 +19 +22 1013.3 1003.0 +17.5
06 12.10 СВ 1 4000 м дым ясно +29.5 +18.8 53 +35 +49 очень
душно
1013.7 1003.7
09 12.10 СВ 2 4000 м мгла ясно +33.0 +16.6 38 +36 +47 очень
душно
1012.0 1001.9
12 12.10 СВ 2 4000 м мгла ясно +32.0 +16.2 39 +35 +36 очень
душно
1009.8 999.9 +33.5
15 12.10 штиль 0 4000 м дым ясно +25.5 +17.6 62 +30 +30 душно 1011.0 1000.0
18 12.10 штиль 0 4000 м дым ясно +25.5 +16.7 58 +29 +29 душно 1011.1 1002.1
21 12.10 штиль 0 4000 м дым ясно +23.0 +16.5 67 +28 +28 душно 1011.2 1011.0
00 13.10 штиль 0 2000 м дым ясно +20.0 +16.7 81 +22 +22 комфорт 1012.2 1001.9
03 13.10 штиль 0 2000 м дым ясно +19.0 +15.6 81 +20 +23 1013.9 1003.5 +17.5
06 13.10 штиль 0 4000 м мгла ясно +30.5 +15.2 40 +33 +49 душно 1014.4 1004.4
09 13.10 штиль 0 4000 м мгла ясно +34.0 +11.2 25 +34 +48 очень
жарко
1011.7 1000.0
12 13.10 штиль 0 4000 м мгла ясно +33.0 +18.5 42 +38 +39 очень
душно
1010.6 1000.7 +34.5
15 13.10 штиль 0 4000 м дым ясно +27.0 +19.3 63 +33 +33 очень
душно
1011.1 1000.0
18 13.10 штиль 0 4000 м дым ясно +23.5 +16.2 64 +27 +27 душно 1011.8 1001.6
21 13.10 штиль 0 4000 м дым ясно +21.0 +16.0 73 +24 +24 комфорт 1011.0 1000.0
00 14.10 штиль 0 4000 м дым ясно +18.5 +15.1 81 +19 +19 1011.2 1000.8
03 14.10 штиль 0 4000 м дым ясно +19.0 +15.6 81 +20 +23 1011.7 1001.3 +17.5
06 14.10 штиль 0 4000 м мгла ясно +30.5 +15.2 40 +33 +49 душно 1012.4 1002.4
09 14.10 штиль 0 4000 м мгла ясно +35.5 +12.5 25 +35 +50 очень
жарко
1009.7 1000.0
12 14.10 штиль 0 4000 м мгла ясно +35.5 +18.0 36 +39 +41 очень
душно
1008.3 998.5 +36.2
15 14.10 штиль 0 4000 м дым ясно +26.5 +18.8 63 +32 +32 очень
душно
1009.2 1000.0
18 14.10 штиль 0 4000 м дым ясно +23.0 +18.3 75 +29 +29 очень
душно
1010.2 1000.0
21 14.10 штиль 0 4000 м дым ясно +21.0 +16.9 77 +24 +24 комфорт 1009.3 1009.0
00 15.10 штиль 0 2000 м дым ясно +18.0 +15.5 85 +18 +18 1010.3 999.9
03 15.10 штиль 0 2000 м дым ясно +17.5 +14.9 85 +17 +20 1011.8 1001.4 +17.1
06 15.10 штиль 0 4000 м мгла 3/0
[Ac trans]
+28.5 +16.6 49 +32 +45 душно 1011.8 1001.8
09 15.10 штиль 0 4000 м мгла 4/0
[Ac trans]
+33.5 +15.2 33 +35 +46 душно 1010.1 1000.0
12 15.10 штиль 0 4000 м мгла 5/0
[Ac trans]
+33.0 +15.5 35 +35 +36 душно 1008.7 998.8 +35.1
15 15.10 штиль 0 4000 м дым ясно +26.5 +17.3 57 +31 +31 душно 1009.2 1000.0
18 15.10 штиль 0 4000 м дым ясно +22.5 +17.7 74 +28 +28 душно 1010.7 1000.4
21 15.10 штиль 0 2000 м дым ясно +20.0 +16.7 81 +22 +22 комфорт 1009.8 1000.0
00 16.10 штиль 0 2000 м дым ясно +18.0 +15.5 85 +18 +18 1009.5 999.1
03 16.10 штиль 0 2000 м дым 5/0
[Ac trans]
+19.5 +14.4 72 +21 +23 комфорт 1011.0 1000.6 +17.3
06 16.10 штиль 0 4000 м мгла 5/0
[Ac trans]
+29.0 +14.2 40 +31 +41 жарко 1011.1 1001.1
09 16.10 штиль 0 4000 м мгла 4/0
[Ac trans]
+34.0 +12.5 27 +34 +45 очень
жарко
1009.4 1000.0
12 16.10 штиль 0 4000 м мгла ясно +35.0 +16.3 33 +38 +39 очень
душно
1007.9 998.1 +35.5
15 16.10 штиль 0 4000 м дым ясно +26.0 +17.3 59 +30 +30 душно 1008.4 1000.0
18 16.10 штиль 0 4000 м дым ясно +23.0 +15.6 63 +27 +27 душно 1010.9 1000.7
21 16.10 штиль 0 4000 м дым ясно +21.0 +15.1 69 +24 +24 комфорт 1010.2 1000.0
00 17.10 штиль 0 4000 м дым ясно +19.0 +14.7 76 +20 +20 1009.7 999.3
03 17.10 штиль 0 4000 м дым ясно +20.5 +14.6 69 +23 +25 комфорт 1011.4 1001.1 +18.1
06 17.10 штиль 0 4000 м дым ясно +20.5 +14.6 69 +23 +38 комфорт 1011.4 1001.1 +18.1
09 17.10 штиль 0 4000 м мгла ясно +34.0 +12.5 27 +34 +48 очень
жарко
1009.5 999.2
12 17.10 штиль 0 4000 м мгла ясно +33.0 +15.5 35 +35 +36 душно 1007.9 998.0 +34.5
15 17.10 штиль 0 4000 м дым ясно +26.0 +16.4 55 +29 +29 душно 1008.6 1000.0
18 17.10 штиль 0 4000 м дым ясно +23.0 +18.3 75 +29 +29 очень
душно
1010.3 1000.1
21 17.10 штиль 0 2000 м дым ясно +20.5 +17.3 82 +24 +24 комфорт 1009.5 1000.0

 

Местоположение метеостанции Khanpur (Пакистан): широта 28.65 долгота 70.68 высота над уровнем моря 88 м.

В архиве по умолчанию представлена погода в Khanpur за последнюю неделю. Архивные данные за месяц целиком и за предыдущие месяцы, начиная с января 2011 года, Вы можете получить, выбрав интересующий диапазон дат из раскрывающегося списка и нажав кнопку "Ввод!".


*Определитесь, кто Вы:
робот инопланетянин человек

Внимание! Время в таблицах - всемирное. Для получения местного времени необходимо прибавить поправку, которая в Khanpur равна 5 ч.

Смотрите также архив погоды в соседних городах и на ближайших метеорологических станциях:

Погода в Bahawalpur (Пакистан) (136 км)
Погода в Barkhan (Пакистан) (166 км)
Погода в Multan (Пакистан) (187 км)
Погода в Jaisalmer (Rajasthan, Индия) (196 км)
Погода в Rohri (Пакистан) (206 км)
Погода в Jacobabad (Пакистан) (220 км)
Погода в Bikaner (Rajasthan, Индия) (267 км)
Погода в Raifiqui Airbase (Пакистан) (279 км)
Погода в Bahawalnagar (Пакистан) (288 км)
Погода в Sibi (Пакистан) (290 км)

Пояснения к столбцам:

Ветер - указаны скорость ветра в м/с - средняя за 10 мин, порывы в срок и между сроками (в фигурных скобках) и направление, откуда дует ветер: С - северный, СВ - северо-восточный, В - восточный, ЮВ - юго-восточный, Ю - южный, ЮЗ - юго-западный, З - западный, СЗ - северо-западный.
Видимость - горизонтальная дальность видимости в метрах или километрах. При видимости от 1 до 10 км при отсутствии осадков обычно наблюдается дымка, при ухудшении видимости до 1 км и менее - туман. В сухую погоду видимость может ухудшаться дымом, пылью или мглою.
Явления - указаны атмосферные явления, наблюдавшиеся в срок или в последний час перед сроком; фигурными скобками обозначены явления, наблюдавшиеся между сроками (за 1-3 часа до срока); квадратными скобками обозначены град или гололедные отложения с указанием их диаметра в мм.
Облачность - указаны через наклонную черту общая и нижняя облачность в баллах и высота нижней границы облаков в метрах; квадратными скобками обозначены формы облаков: Ci - перистые, Cs - перисто-слоистые, Cc - перисто-кучевые, Ac - высококучевые, As - высокослоистые, Sc - слоисто-кучевые, Ns - слоисто-дождевые, Cu - кучевые, Cb - кучево-дождевые. Подробнее классификацию облаков см. в Атласе облаков (PDF).
T - Температура воздуха - температура, измеренная на высоте 2 м над землей.
Td - Температура точки росы - температура, при понижении до которой содержащийся в воздухе водяной пар достигнет насыщения.
f - Относительная влажность воздуха - влажноcть воздуха, измеренная на высоте 2 м над землей.
Te - Эффективная температура - температура, которую ощущает одетый по сезону человек в тени. Характеристика душности погоды. При расчете учитывается влияние влажности воздуха и скорости ветра на теплоощущения человека.
Tes - Эффективная температура на солнце - температура, которую ощущает человек, с поправкой на солнечный нагрев. Характеристика знойности погоды. Зависит от высоты солнца над горизонтом, облачности и скорости ветра. Ночью, в пасмурную погоду, а также при ветре 12 м/с и более поправка равна нулю.
P - Атмосферное давление - приведенное к уровню моря атмосферное давление.
Po - Атмосферное давление - измеренное на уровне метеостанции атмосферное давление.
Tmin - Минимальная температура - минимум температуры воздуха на высоте 2 м над землей.
Tmax - Максимальная температура - максимум температуры воздуха на высоте 2 м над землей.
R - Количество осадков - Количество выпавших осадков за период времени, мм. При наведении курсора мыши на число - период времени, за который выпало указанное количество осадков.
R24 - Количество осадков - Количество выпавших осадков за 24 часа, мм.
S - Снежный покров - Высота снежного покрова, см. При наведении курсора мыши на число - состояние снежного покрова и степень покрытия местности в баллах.